Regional Weather Roundup
Issued by NWS

Home | Current Version | Previous Version | Text Only | Print | Product List | Glossary On
Versions: 1 2 3 4 5 6 7 8 9 10 11 12 13 14 15 16 17 18 19 20 21 22 23 24 25 26 27 28 29 30 31 32 33 34 35 36 37 38 39 40 41 42 43 44 45 46 47 48 49 50
000
ASUS45 KCYS 230510
RWRWY

WYOMING REGIONAL WEATHER ROUNDUP
NATIONAL WEATHER SERVICE CHEYENNE WY
1000 PM MST SAT NOV 22 2014

NOTE:  "FAIR" INDICATES FEW OR NO CLOUDS BELOW 12,000 FEET
WITH NO SIGNIFICANT WEATHER AND/OR OBSTRUCTIONS TO VISIBILITY.

WYZ001-230600-
YELLOWSTONE NATIONAL PARK

CITY           SKY/WX    TMP DP  RH WIND       PRES   REMARKS
LK YELLOWSTONE   N/A     10   6  84 NW3       29.72R
W YELLOWSTONE  NOT AVBL

$$
WYZ002>013-054>058-071-098>099-230600-
NORTHERN WYOMING

CITY           SKY/WX    TMP DP  RH WIND       PRES   REMARKS
JACKSON        PTCLDY    25  14  63 SE13      29.75R WCI  13
CODY           CLEAR     36   9  32 NW7       29.63R WCI  30
GREYBULL       PTCLDY    25  22  88 SW3       29.63R
WORLAND        PTCLDY    28  25  88 VRB3      29.63R
SHERIDAN       PTCLDY    28  19  69 W5        29.59R WCI  23
BUFFALO        MOCLDY    36  14  40 N20G28    29.58R WCI  25
GILLETTE       CLOUDY    37  21  52 NW20G26   29.55R WCI  27
HULETT           N/A    N/A N/A N/A MISG        N/A
NEWCASTLE      CLOUDY    36  30  80 N22G29    29.56R WCI  24

$$
WYZ014>020-022>026-101>103-230600-
CENTRAL WYOMING

CITY           SKY/WX    TMP DP  RH WIND       PRES   REMARKS
BIG PINEY      PTCLDY    36  19  50 NW7       29.74R WCI  30
PINEDALE       PTCLDY    14  10  85 CALM      29.75R
DUBOIS         FAIR      21  12  68 N9        29.72R WCI  11
LANDER         NOT AVBL
RIVERTON       MOCLDY    33  14  45 W26       29.65R WCI  20
CASPER         CLOUDY    34  29  82 S5        29.61R WCI  30
DOUGLAS        MOCLDY   N/A N/A N/A N16G29    29.59R

$$
WYZ021-027>030-104>119-230600-
SOUTHERN WYOMING

CITY           SKY/WX    TMP DP  RH WIND       PRES   REMARKS
EVANSTON       MOCLDY    27  22  81 W15       29.83S WCI  15
KEMMERER       CLOUDY    28  27  93 SW8       29.80R WCI  20
FORT BRIDGER   CLOUDY    30  28  93 W15       29.84R WCI  19
ROCK SPRINGS   CLOUDY    30  24  78 W26G37    29.74R WCI  16
DIXON          CLOUDY    33  31  90 SW13      29.76S WCI  24
RAWLINS        MIX PCPN  32  26  78 W26G38    29.68R WCI  18
SARATOGA       CLOUDY    34  27  75 W21G28    29.68R WCI  22
LARAMIE        CLOUDY    33  27  78 W16       29.62F WCI  23
CHEYENNE       PTCLDY    40  27  59 W22       29.58F WCI  30
TORRINGTON     PTCLDY    45  29  53 W9        29.51R
PINE BLUFFS    FAIR      45  27  49 W22G32    29.54F

$$


USA.gov is the U.S. government's official web portal to all federal, state and local government web resources and services.